Tracking 29892 objects as of 21-Nov-2024
HD Live streaming from Space Station
objects crossing your sky now

THORAD AGENA D DEB

Track THORAD AGENA D DEB now!
10-day predictions


NORAD ID: 26821
Int'l Code: 1970-025QQ
Perigee: 688.6 km
Apogee: 765.9 km
Inclination: 100.0 °
Period: 99.2 minutes
Semi major axis: 7098 km
RCS: 0.01 m2 (small)
Launch date: April 8, 1970
Source: United States (US)
Launch site: AIR FORCE WESTERN TEST RANGE (AFWTR)

Note: This is SATELLITE DEBRIS
Your satellite tracking list
Your tracking list is empty




NASA's NSSDC Master Catalog

Two Line Element Set (TLE):
1 26821U 70025QQ  24325.59597147  .00022685  00000-0  55403-2 0  9998
2 26821  99.9872 197.7889 0054417 262.6498 126.8274 14.51697830623164
Source of the keplerian elements: AFSPC